LEMUR-2-LIU-POU-CHUN (43054 NORAD) Tracking and Keplerian Element Data

This shows tracking and keplerian element data for the satellite.

Feedback or suggestion? Click here.




ElementValue
Catalog43054
NameLEMUR-2-LIU-POU-CHUN
Epoch Orbit13051
Epoch Day91.85521265
Epoch Year2020
RAAN76.0952
Inclination51.637
Eccentricity0.0001432
Argument of Perigee72.2591
Mean Anonmoly287.8552
Mean Motion15.46368588
Decay Rate7.904E-05
L11 43054U 17071T 20091.85521265 .00007904 00000-0 16571-3 0 9991
L22 43054 51.6370 76.0952 0001432 72.2591 287.8552 15.46368588130516

Live tracking and technical data element details for LEMUR-2-LIU-POU-CHUN (NORAD 43054). LEMUR-2-LIU-POU-CHUN can be tracked NOW for your location showing map with azimuth and elevation plus other details from your city location.

Track the satellite on the map from your city or location and see movement details for azimuth, elevation, latitude, longitude, range, height, and movement on the map or in text.







IsCatalogInMostPopularTable: catalog: 43054, numindb: 374
Update: records affected: 1



GetName: 43054 LEMUR-2-LIU-POU-CHUN

Hit Count: updated at: Fri, 03 Apr 2020 08:19:19 GMT